Location: Boda
(47.1872°N, 9.5454°E)
Time: 08:32:12
(UTC+00:00)

SL-14 R/B - Pass Details

Date: 14 May 2021
Orbit: 519 x 552 km, 82.4° (Epoch: 16 June)

Event Time Altitude Azimuth Distance (km) Brightness Sun altitude
Exits shadow 02:13:00 21° 206° (SSW) 1,224 4.5 -13.3°
Maximum altitude 02:15:27 60° 281° (WNW) 617 3.4 -13.1°
Drops below altitude 10° 02:19:24 10° 3° (N) 1,813 6.7 -12.6°
Sets 02:21:36 0° 7° (N) 2,716 7.8 -12.3°
